Regional Weather Roundup
Issued by NWS Kansas City/Pleasant Hill, MO

Home | Current Version | Previous Version | Graphics & Text | Print | Product List | Glossary Off
Versions: 1 2 3 4 5 6 7 8 9 10 11 12 13 14 15 16 17 18 19 20 21 22 23 24 25 26 27

000
ASUS43 KEAX 312210
RWREAX

WEATHER ROUNDUP FOR EASTERN KANSAS AND NORTHWEST MISSOURI
NATIONAL WEATHER SERVICE KANSAS CITY/PLEASANT HILL MO
500 PM CDT WED AUG 31 2016

KSZ040-057-103>105-MOZ028-029-037-043-312300-
...KANSAS CITY METROPOLITAN AREA...

CITY           SKY/WX    TMP DP  RH WIND       PRES   REMARKS
K.C. INTL      PTSUNNY   80  67  64 N8        30.09F
K.C. DOWNTOWN  CLOUDY    83  68  60 NE6       30.07S
LEES SUMMIT    CLOUDY    79  68  69 N10       30.09S
OLATHE - IXD   PTSUNNY   79  69  71 N12       30.09F
OLATHE - OJC   CLOUDY    78  69  73 NE9       30.09S
LAWRENCE       CLOUDY    80  70  71 N8        30.08F

$$

MOZ001>008-011>017-020>025-030>033-038>040-044>046-053-054-312300-
...NORTHERN AND CENTRAL MISSOURI...

CITY           SKY/WX    TMP DP  RH WIND       PRES   REMARKS
ST. JOSEPH     SUNNY     78  64  61 N8        30.10S
MOSBY          MOCLDY    81  64  57 N9        30.08S
WHITEMAN AFB   PTSUNNY   77  75  95 N8        30.06R
CLINTON        CLOUDY    77  73  88 CALM      30.07R
SEDALIA        LGT RAIN  76  70  82 CALM      30.07S
WARSAW         NOT AVBL
CHILLICOTHE      N/A     80  66  62 VRB6      30.10R
KIRKSVILLE     CLOUDY    76  64  66 N14       30.10S

$$

MOZ041-047>049-056>058-063>065-088>090-097-312300-
...EASTERN AND SOUTHERN MISSOURI...

CITY           SKY/WX    TMP DP  RH WIND       PRES   REMARKS
ST. LOUIS INTL CLOUDY    82  73  74 N6        30.03S
SPIRIT OF STL  CLOUDY    81  73  76 N7        30.01F
COLUMBIA       LGT RAIN  75  72  90 SW5       30.05F
JEFFERSON CITY CLOUDY    77  71  82 E5        30.04S
ROLLA          CLOUDY    75  72  90 N8        30.04F
OSAGE BEACH    CLOUDY    73  71  93 CALM      30.06F
SPRINGFIELD    MOSUNNY   77  68  73 N9        30.05F
BRANSON        PTSUNNY   84  72  65 NE10      30.04F
JOPLIN         LGT RAIN  71  69  93 NE12      30.06S
WEST PLAINS    CLOUDY    82  69  64 N8        30.05F

$$

IAZ060-094-KSZ022-034>040-054-083-096-NEZ052-066-093-312300-
...KANSAS...SOUTHEAST NEBRASKA AND IOWA...

CITY           SKY/WX    TMP DP  RH WIND       PRES   REMARKS
TOPEKA         MOSUNNY   82  70  66 NE6       30.08F
MANHATTAN      CLOUDY    79  70  74 NE6       30.09F
EMPORIA        CLOUDY    78  71  79 NE10      30.08F
CHANUTE        LGT RAIN  77  72  84 NE8       30.06S
WICHITA        PTSUNNY   82  69  64 NE10      30.07F
OMAHA          PTSUNNY   81  59  47 N9        30.14F
LINCOLN        MOSUNNY   82  61  48 NE10      30.15F
FALLS CITY     CLOUDY    78  62  57 NE6       30.11S
LAMONI         CLOUDY    77  60  55 NE13      30.12S
DES MOINES     PTSUNNY   81  56  42 NE12      30.11F

$$





USA.gov is the U.S. government's official web portal to all federal, state and local government web resources and services.